Location: Mohawk View
(42.7837°N, 73.7885°W)
Time: 08:38:45
(UTC+00:00)

Cosmos 1892 Rocket - Pass Details

Date: 17 June 2021
Orbit: 606 x 633 km, 82.5° (Epoch: 28 July)

Event Time Altitude Azimuth Distance (km) Brightness Sun altitude
Exits shadow 04:40:54 40° 261° (W) 927 4.3 -23.7°
Maximum altitude 04:41:29 42° 283° (WNW) 895 4.4 -23.7°
Drops below altitude 10° 04:45:43 10° 354° (N) 2,010 7.3 -23.8°
Sets 04:48:05 0° 2° (N) 2,926 8.5 -23.8°
